STARLINK-35597, 66493

Orbit data source: Space-Track

STARLINK-35597, 66493 is a payload satellite owned by SpaceX/Seattle (US) in LEO that was launched on Sat, 15 Nov 2025 UTC via an FALCON 9 launch vehicle from the Air Force Eastern Test Range (AFETR). Payload-class satellites include a variety of spacecraft equipped with specific instruments for various scientific and technological missions. These include communications satellites like Starlink; space stations such as the ISS; scientific satellites like the Hubble; Earth observation satellites from companies like Planet Labs, Umbra, and HawkEye 360; GPS; miniature CubeSats for education and research; and military/defense satellites.

Loading next visibility...
Identifier
66493, 2025-263J
Orbit
LEO
Country
Flag of USUS
Related business
Manufacturer
SpaceX/Seattle
Mission
Operational Commercial Communications
Bus & Motor
STARLINK V2MO, Unknown motor
Mass
575 kg wet, ~530 kg dry
Launch date (UTC)
2025-11-15 (7 months ago)
Launch vehicle
FALCON 9
Launch site
Air Force Eastern Test Range (AFETR)
Object type
Payload
Rocket body
Debris
Shape & HBR
Box + 2 Pan, 17.7 m
Radar Cross Section
36.964 m², Large (>1 m²)

Expand to show TLE details & history
Last TLE update: 1 day ago

TLE from 1 day ago
0 STARLINK-35597
1 66493U 25263J   26170.61364067  .00015884  00000-0  58523-3 0  9997
2 66493  43.0026 135.3651 0001216 271.1062  88.9651 15.27594016 34484
Epoch: 2026-06-19T14:43Z
TLE epoch observation values (Epoch: 2026-06-19T14:43:38.553Z)
Latitude
0.00001°
Longitude
6.61437°
Altitude
482.768 km
Speed
7.626 km/s
True Right ascension
09h 01m 27s
True Declination
0° 00' 00"
Sunlit
Object was in daylight at epoch
Visualization orbit readout
Latitude
Unknown
Longitude
Unknown
Altitude
Unknown
Speed
Unknown
Apparent Right ascension
Unknown
Apparent Declination
Unknown
Sunlit
N/A
Visualization observer readout
Local Sidereal Time
08:33:42
Azimuth
Unknown
Elevation
Unknown
Doppler factor
Unknown
Orbital elements
Apogee altitude
485.786 km
Perigee altitude
484.117 km
Semi-major axis
6,863.089 km
Eccentricity
0.00012
Inclination
43.0026°
RAAN
135.3651°
Arg. of periapsis
271.1062°
True anomaly
88.97903°
Mean anomaly
88.9651°
Eccentric anomaly
88.97207°
Mean motion
3.81737 °/min
Orbital period
94.31 mins
BSTAR
0.00058523
Loading maneuver chart data...
Computing Atmospheric mass density...
Loading historical data...
Loading historical data...
Loading historical data...
Loading historical data...
Loading historical data...
Loading historical data...
Loading historical data...

Documentation

Showing up to 5 results
|